Location: Bullenkuhlen
(53.7689°N, 9.7495°E)
Time: 18:29:06
(UTC+00:00)

Cosmos 1633 - Pass Details

Date: 09 April 2020
Orbit: 464 x 481 km, 82.5° (Epoch: 23 May)

Event Time Altitude Azimuth Distance (km) Brightness Sun altitude
Rises 21:52:43 0° 348° (NNW) 2,519 7.5 -25.4°
Reaches altitude 10° 21:54:49 10° 348° (NNW) 1,635 6.2 -25.5°
Enters shadow 21:57:09 39° 345° (NNW) 723 3.9 -25.6°
